User: anonymous   Login
Location: Oulou
(10.7667°N, 12.5167°W)
Time: 10:56:41
(UTC+00:00)
Language:

GPS 2-04 Rocket1 - Orbit

View from above orbital plane
View from above orbital plane
View from above satellite
View from above satellite

Ground track
Ground track

The orbit data is extracted from the following two-line orbital elements,

1 20303U 89085B   19322.82394868  .00001636  00000-0  55478-4 0  9992
2 20303  35.6276 259.4289 0095347  95.0064 266.1555 15.26741554635699
Epoch (UTC): 18 November 2019 19:46:29
Eccentricity: 0.0095347
inclination: 35.6276°
perigee height: 420 km
apogee height: 551 km
right ascension of ascending node: 259.4289°
argument of perigee: 95.0064°
revolutions per day: 15.26741554
mean anomaly at epoch: 266.1555°
orbit number at epoch: 63569

The dashed part of the orbit path shows where the satellite is in the earth's shadow,  

DLR